owner,sensor,date,latitude,longitude,vertical_datum,sea_water_temperature,qcFlag 
TABS,ioos:station:wmo:42050:1,2003-05-01T00:00:00Z,28.8425,-94.2433,-2.0,22.99,11111222 
TABS,ioos:station:wmo:42050:1,2003-05-01T00:30:00Z,28.8425,-94.2433,-2.0,22.89,11111222 
TABS,ioos:station:wmo:42050:1,2003-05-01T01:00:00Z,28.8425,-94.2433,-2.0,22.73,11111222 
TABS,ioos:station:wmo:42050:1,2003-05-01T01:30:00Z,28.8425,-94.2433,-2.0,22.52,11111222 
TABS,ioos:station:wmo:42050:1,2003-05-01T02:00:00Z,28.8425,-94.2433,-2.0,22.33,11111222 
TABS,ioos:station:wmo:42050:1,2003-05-01T02:30:00Z,28.8425,-94.2433,-2.0,22.36,11111222 
TABS,ioos:station:wmo:42050:1,2003-05-01T03:00:00Z,28.8425,-94.2433,-2.0,22.41,11111222 
TABS,ioos:station:wmo:42050:1,2003-05-01T03:30:00Z,28.8425,-94.2433,-2.0,22.45,11111222 
TABS,ioos:station:wmo:42050:1,2003-05-01T04:00:00Z,28.8425,-94.2433,-2.0,22.47,11111222 
TABS,ioos:station:wmo:42050:1,2003-05-01T04:30:00Z,28.8425,-94.2433,-2.0,22.46,11111222 
TABS,ioos:station:wmo:42050:1,2003-05-01T05:00:00Z,28.8425,-94.2433,-2.0,22.44,11111222 
TABS,ioos:station:wmo:42050:1,2003-05-01T05:30:00Z,28.8425,-94.2433,-2.0,22.41,11111222 
TABS,ioos:station:wmo:42050:1,2003-05-01T06:00:00Z,28.8425,-94.2433,-2.0,22.39,11111222 
TABS,ioos:station:wmo:42050:1,2003-05-01T06:30:00Z,28.8425,-94.2433,-2.0,22.37,11111222 
TABS,ioos:station:wmo:42050:1,2003-05-01T07:00:00Z,28.8425,-94.2433,-2.0,22.33,11111222 
TABS,ioos:station:wmo:42050:1,2003-05-01T07:30:00Z,28.8425,-94.2433,-2.0,22.31,11111222 
TABS,ioos:station:wmo:42050:1,2003-05-01T08:00:00Z,28.8425,-94.2433,-2.0,22.28,11111222 
TABS,ioos:station:wmo:42050:1,2003-05-01T08:30:00Z,28.8425,-94.2433,-2.0,22.19,11111222 
TABS,ioos:station:wmo:42050:1,2003-05-01T09:00:00Z,28.8425,-94.2433,-2.0,22.19,11111222 
TABS,ioos:station:wmo:42050:1,2003-05-01T09:30:00Z,28.8425,-94.2433,-2.0,22.22,11111222 
TABS,ioos:station:wmo:42050:1,2003-05-01T10:00:00Z,28.8425,-94.2433,-2.0,22.16,11111222 
TABS,ioos:station:wmo:42050:1,2003-05-01T10:30:00Z,28.8425,-94.2433,-2.0,22.16,11111222 
TABS,ioos:station:wmo:42050:1,2003-05-01T11:00:00Z,28.8425,-94.2433,-2.0,22.15,11111222 
TABS,ioos:station:wmo:42050:1,2003-05-01T11:30:00Z,28.8425,-94.2433,-2.0,22.19,11111222 
TABS,ioos:station:wmo:42050:1,2003-05-01T12:00:00Z,28.8425,-94.2433,-2.0,22.23,11111222 
TABS,ioos:station:wmo:42050:1,2003-05-01T12:30:00Z,28.8425,-94.2433,-2.0,22.29,11111222 
TABS,ioos:station:wmo:42050:1,2003-05-01T13:00:00Z,28.8425,-94.2433,-2.0,22.32,11111222 
TABS,ioos:station:wmo:42050:1,2003-05-01T13:30:00Z,28.8425,-94.2433,-2.0,22.34,11111222 
TABS,ioos:station:wmo:42050:1,2003-05-01T14:00:00Z,28.8425,-94.2433,-2.0,22.35,11111222 
TABS,ioos:station:wmo:42050:1,2003-05-01T14:30:00Z,28.8425,-94.2433,-2.0,22.42,11111222 
TABS,ioos:station:wmo:42050:1,2003-05-01T15:00:00Z,28.8425,-94.2433,-2.0,22.41,11111222 
TABS,ioos:station:wmo:42050:1,2003-05-01T15:30:00Z,28.8425,-94.2433,-2.0,22.38,11111222 
TABS,ioos:station:wmo:42050:1,2003-05-01T16:00:00Z,28.8425,-94.2433,-2.0,22.43,11111222 
TABS,ioos:station:wmo:42050:1,2003-05-01T16:30:00Z,28.8425,-94.2433,-2.0,22.45,11111222 
TABS,ioos:station:wmo:42050:1,2003-05-01T17:00:00Z,28.8425,-94.2433,-2.0,22.5,11111222 
TABS,ioos:station:wmo:42050:1,2003-05-01T17:30:00Z,28.8425,-94.2433,-2.0,22.69,11111222 
TABS,ioos:station:wmo:42050:1,2003-05-01T18:00:00Z,28.8425,-94.2433,-2.0,22.77,11111222 
TABS,ioos:station:wmo:42050:1,2003-05-01T18:30:00Z,28.8425,-94.2433,-2.0,22.78,11111222 
TABS,ioos:station:wmo:42050:1,2003-05-01T19:00:00Z,28.8425,-94.2433,-2.0,22.92,11111222 
TABS,ioos:station:wmo:42050:1,2003-05-01T19:30:00Z,28.8425,-94.2433,-2.0,23.05,11111222 
TABS,ioos:station:wmo:42050:1,2003-05-01T20:00:00Z,28.8425,-94.2433,-2.0,23.18,11111222 
TABS,ioos:station:wmo:42050:1,2003-05-01T20:30:00Z,28.8425,-94.2433,-2.0,23.33,11111222 
TABS,ioos:station:wmo:42050:1,2003-05-01T21:00:00Z,28.8425,-94.2433,-2.0,23.42,11111222 
TABS,ioos:station:wmo:42050:1,2003-05-01T21:30:00Z,28.8425,-94.2433,-2.0,23.42,11111222 
TABS,ioos:station:wmo:42050:1,2003-05-01T22:00:00Z,28.8425,-94.2433,-2.0,23.44,11111222 
TABS,ioos:station:wmo:42050:1,2003-05-01T22:30:00Z,28.8425,-94.2433,-2.0,23.46,11111222 
TABS,ioos:station:wmo:42050:1,2003-05-01T23:00:00Z,28.8425,-94.2433,-2.0,23.49,11111222 
TABS,ioos:station:wmo:42050:1,2003-05-01T23:30:00Z,28.8425,-94.2433,-2.0,23.53,11111222 
TABS,ioos:station:wmo:42050:1,2003-05-02T00:00:00Z,28.8425,-94.2433,-2.0,23.51,11111222 
TABS,ioos:station:wmo:42050:1,2003-05-02T00:30:00Z,28.8425,-94.2433,-2.0,23.41,11111222 
TABS,ioos:station:wmo:42050:1,2003-05-02T01:00:00Z,28.8425,-94.2433,-2.0,23.33,11111222 
TABS,ioos:station:wmo:42050:1,2003-05-02T01:30:00Z,28.8425,-94.2433,-2.0,23.25,11111222 
TABS,ioos:station:wmo:42050:1,2003-05-02T02:00:00Z,28.8425,-94.2433,-2.0,23.19,11111222 
TABS,ioos:station:wmo:42050:1,2003-05-02T02:30:00Z,28.8425,-94.2433,-2.0,23.1,11111222 
TABS,ioos:station:wmo:42050:1,2003-05-02T03:00:00Z,28.8425,-94.2433,-2.0,23.01,11111222 
TABS,ioos:station:wmo:42050:1,2003-05-02T03:30:00Z,28.8425,-94.2433,-2.0,23.0,11111222 
TABS,ioos:station:wmo:42050:1,2003-05-02T04:00:00Z,28.8425,-94.2433,-2.0,23.03,11111222 
TABS,ioos:station:wmo:42050:1,2003-05-02T04:30:00Z,28.8425,-94.2433,-2.0,23.02,11111222 
TABS,ioos:station:wmo:42050:1,2003-05-02T05:00:00Z,28.8425,-94.2433,-2.0,22.99,11111222 
TABS,ioos:station:wmo:42050:1,2003-05-02T05:30:00Z,28.8425,-94.2433,-2.0,22.96,11111222 
TABS,ioos:station:wmo:42050:1,2003-05-02T06:00:00Z,28.8425,-94.2433,-2.0,22.92,11111222 
TABS,ioos:station:wmo:42050:1,2003-05-02T06:30:00Z,28.8425,-94.2433,-2.0,22.9,11111222 
TABS,ioos:station:wmo:42050:1,2003-05-02T07:00:00Z,28.8425,-94.2433,-2.0,22.88,11111222 
TABS,ioos:station:wmo:42050:1,2003-05-02T07:30:00Z,28.8425,-94.2433,-2.0,22.86,11111222 
TABS,ioos:station:wmo:42050:1,2003-05-02T08:00:00Z,28.8425,-94.2433,-2.0,22.84,11111222 
TABS,ioos:station:wmo:42050:1,2003-05-02T08:30:00Z,28.8425,-94.2433,-2.0,22.84,11111222 
TABS,ioos:station:wmo:42050:1,2003-05-02T09:00:00Z,28.8425,-94.2433,-2.0,22.82,11111222 
TABS,ioos:station:wmo:42050:1,2003-05-02T09:30:00Z,28.8425,-94.2433,-2.0,22.81,11111222 
TABS,ioos:station:wmo:42050:1,2003-05-02T10:00:00Z,28.8425,-94.2433,-2.0,22.81,11111222 
TABS,ioos:station:wmo:42050:1,2003-05-04T05:00:00Z,28.8425,-94.2433,-2.0,24.0,11111222 
TABS,ioos:station:wmo:42050:1,2003-05-04T05:30:00Z,28.8425,-94.2433,-2.0,24.0,11111222 
TABS,ioos:station:wmo:42050:1,2003-05-04T06:00:00Z,28.8425,-94.2433,-2.0,24.3,11111222 
TABS,ioos:station:wmo:42050:1,2003-05-04T06:30:00Z,28.8425,-94.2433,-2.0,24.0,11111222 
TABS,ioos:station:wmo:42050:1,2003-05-04T07:00:00Z,28.8425,-94.2433,-2.0,23.8,11111222 
TABS,ioos:station:wmo:42050:1,2003-05-04T07:30:00Z,28.8425,-94.2433,-2.0,23.8,11111222 
TABS,ioos:station:wmo:42050:1,2003-05-04T08:00:00Z,28.8425,-94.2433,-2.0,23.5,11111222 
TABS,ioos:station:wmo:42050:1,2003-05-04T08:30:00Z,28.8425,-94.2433,-2.0,23.5,11111222 
TABS,ioos:station:wmo:42050:1,2003-05-04T09:00:00Z,28.8425,-94.2433,-2.0,23.5,11111222 
TABS,ioos:station:wmo:42050:1,2003-05-04T09:30:00Z,28.8425,-94.2433,-2.0,24.0,11111222 
TABS,ioos:station:wmo:42050:1,2003-05-04T10:00:00Z,28.8425,-94.2433,-2.0,24.0,11111222 
TABS,ioos:station:wmo:42050:1,2003-05-04T10:30:00Z,28.8425,-94.2433,-2.0,24.0,11111222 
TABS,ioos:station:wmo:42050:1,2003-05-04T11:00:00Z,28.8425,-94.2433,-2.0,23.8,11111222 
TABS,ioos:station:wmo:42050:1,2003-05-04T11:30:00Z,28.8425,-94.2433,-2.0,23.3,11111222 
TABS,ioos:station:wmo:42050:1,2003-05-04T12:00:00Z,28.8425,-94.2433,-2.0,23.3,11111222 
TABS,ioos:station:wmo:42050:1,2003-05-04T12:30:00Z,28.8425,-94.2433,-2.0,23.0,11111222 
TABS,ioos:station:wmo:42050:1,2003-05-04T13:00:00Z,28.8425,-94.2433,-2.0,23.0,11111222 
TABS,ioos:station:wmo:42050:1,2003-05-04T13:30:00Z,28.8425,-94.2433,-2.0,23.0,11111222 
TABS,ioos:station:wmo:42050:1,2003-05-04T14:30:00Z,28.8425,-94.2433,-2.0,23.0,11111222 
TABS,ioos:station:wmo:42050:1,2003-05-04T15:00:00Z,28.8425,-94.2433,-2.0,23.0,11111222 
TABS,ioos:station:wmo:42050:1,2003-05-04T15:30:00Z,28.8425,-94.2433,-2.0,23.0,11111222 
TABS,ioos:station:wmo:42050:1,2003-05-04T16:00:00Z,28.8425,-94.2433,-2.0,23.0,11111222 
TABS,ioos:station:wmo:42050:1,2003-05-04T16:30:00Z,28.8425,-94.2433,-2.0,23.3,11111222 
TABS,ioos:station:wmo:42050:1,2003-05-04T17:00:00Z,28.8425,-94.2433,-2.0,23.3,11111222 
TABS,ioos:station:wmo:42050:1,2003-05-04T17:30:00Z,28.8425,-94.2433,-2.0,23.5,11111222 
TABS,ioos:station:wmo:42050:1,2003-05-04T18:00:00Z,28.8425,-94.2433,-2.0,23.5,11111222 
TABS,ioos:station:wmo:42050:1,2003-05-04T18:30:00Z,28.8425,-94.2433,-2.0,23.5,11111222 
TABS,ioos:station:wmo:42050:1,2003-05-04T19:00:00Z,28.8425,-94.2433,-2.0,23.5,11111222 
TABS,ioos:station:wmo:42050:1,2003-05-04T19:30:00Z,28.8425,-94.2433,-2.0,23.5,11111222 
TABS,ioos:station:wmo:42050:1,2003-05-04T20:00:00Z,28.8425,-94.2433,-2.0,23.3,11111222 
TABS,ioos:station:wmo:42050:1,2003-05-04T20:30:00Z,28.8425,-94.2433,-2.0,23.3,11111222 
TABS,ioos:station:wmo:42050:1,2003-05-04T21:00:00Z,28.8425,-94.2433,-2.0,23.5,11111222 
TABS,ioos:station:wmo:42050:1,2003-05-04T21:30:00Z,28.8425,-94.2433,-2.0,23.5,11111222 
TABS,ioos:station:wmo:42050:1,2003-05-04T22:00:00Z,28.8425,-94.2433,-2.0,23.3,11111222 
TABS,ioos:station:wmo:42050:1,2003-05-04T22:30:00Z,28.8425,-94.2433,-2.0,23.0,11111222 
TABS,ioos:station:wmo:42050:1,2003-05-04T23:00:00Z,28.8425,-94.2433,-2.0,23.0,11111222 
TABS,ioos:station:wmo:42050:1,2003-05-04T23:30:00Z,28.8425,-94.2433,-2.0,22.8,11111222 
TABS,ioos:station:wmo:42050:1,2003-05-05T00:00:00Z,28.8425,-94.2433,-2.0,22.8,11111222 
TABS,ioos:station:wmo:42050:1,2003-05-05T00:30:00Z,28.8425,-94.2433,-2.0,22.8,11111222 
TABS,ioos:station:wmo:42050:1,2003-05-05T01:00:00Z,28.8425,-94.2433,-2.0,22.8,11111222 
TABS,ioos:station:wmo:42050:1,2003-05-05T08:00:00Z,28.8425,-94.2433,-2.0,22.67,11111222 
TABS,ioos:station:wmo:42050:1,2003-05-05T08:30:00Z,28.8425,-94.2433,-2.0,22.83,11111222 
TABS,ioos:station:wmo:42050:1,2003-05-05T09:00:00Z,28.8425,-94.2433,-2.0,23.08,11111222 
TABS,ioos:station:wmo:42050:1,2003-05-05T09:30:00Z,28.8425,-94.2433,-2.0,23.18,11111222 
TABS,ioos:station:wmo:42050:1,2003-05-05T10:00:00Z,28.8425,-94.2433,-2.0,23.16,11111222 
TABS,ioos:station:wmo:42050:1,2003-05-05T10:30:00Z,28.8425,-94.2433,-2.0,23.14,11111222 
TABS,ioos:station:wmo:42050:1,2003-05-05T11:00:00Z,28.8425,-94.2433,-2.0,23.11,11111222 
TABS,ioos:station:wmo:42050:1,2003-05-05T11:30:00Z,28.8425,-94.2433,-2.0,23.07,11111222 
TABS,ioos:station:wmo:42050:1,2003-05-05T12:00:00Z,28.8425,-94.2433,-2.0,23.02,11111222 
TABS,ioos:station:wmo:42050:1,2003-05-05T12:30:00Z,28.8425,-94.2433,-2.0,22.98,11111222 
TABS,ioos:station:wmo:42050:1,2003-05-05T13:00:00Z,28.8425,-94.2433,-2.0,22.99,11111222 
TABS,ioos:station:wmo:42050:1,2003-05-05T13:30:00Z,28.8425,-94.2433,-2.0,23.01,11111222 
TABS,ioos:station:wmo:42050:1,2003-05-05T14:00:00Z,28.8425,-94.2433,-2.0,23.06,11111222 
TABS,ioos:station:wmo:42050:1,2003-05-05T14:30:00Z,28.8425,-94.2433,-2.0,23.08,11111222 
TABS,ioos:station:wmo:42050:1,2003-05-05T15:00:00Z,28.8425,-94.2433,-2.0,22.9,11111222 
TABS,ioos:station:wmo:42050:1,2003-05-05T15:30:00Z,28.8425,-94.2433,-2.0,22.8,11111222 
TABS,ioos:station:wmo:42050:1,2003-05-05T16:00:00Z,28.8425,-94.2433,-2.0,22.8,11111222 
TABS,ioos:station:wmo:42050:1,2003-05-05T16:30:00Z,28.8425,-94.2433,-2.0,22.82,11111222 
TABS,ioos:station:wmo:42050:1,2003-05-05T17:00:00Z,28.8425,-94.2433,-2.0,22.83,11111222 
TABS,ioos:station:wmo:42050:1,2003-05-05T17:30:00Z,28.8425,-94.2433,-2.0,22.85,11111222 
TABS,ioos:station:wmo:42050:1,2003-05-05T18:00:00Z,28.8425,-94.2433,-2.0,22.84,11111222 
TABS,ioos:station:wmo:42050:1,2003-05-05T18:30:00Z,28.8425,-94.2433,-2.0,22.96,11111222 
TABS,ioos:station:wmo:42050:1,2003-05-05T19:00:00Z,28.8425,-94.2433,-2.0,23.04,11111222 
TABS,ioos:station:wmo:42050:1,2003-05-05T19:30:00Z,28.8425,-94.2433,-2.0,23.08,11111222 
TABS,ioos:station:wmo:42050:1,2003-05-05T20:00:00Z,28.8425,-94.2433,-2.0,23.18,11111222 
TABS,ioos:station:wmo:42050:1,2003-05-05T20:30:00Z,28.8425,-94.2433,-2.0,23.33,11111222 
TABS,ioos:station:wmo:42050:1,2003-05-05T21:00:00Z,28.8425,-94.2433,-2.0,23.53,11111222 
TABS,ioos:station:wmo:42050:1,2003-05-05T21:30:00Z,28.8425,-94.2433,-2.0,23.77,11111222 
TABS,ioos:station:wmo:42050:1,2003-05-05T22:00:00Z,28.8425,-94.2433,-2.0,24.09,11111222 
TABS,ioos:station:wmo:42050:1,2003-05-05T22:30:00Z,28.8425,-94.2433,-2.0,24.19,11111222 
TABS,ioos:station:wmo:42050:1,2003-05-05T23:00:00Z,28.8425,-94.2433,-2.0,24.17,11111222 
TABS,ioos:station:wmo:42050:1,2003-05-05T23:30:00Z,28.8425,-94.2433,-2.0,24.15,11111222 
TABS,ioos:station:wmo:42050:1,2003-05-06T00:00:00Z,28.8425,-94.2433,-2.0,24.12,11111222 
TABS,ioos:station:wmo:42050:1,2003-05-06T00:30:00Z,28.8425,-94.2433,-2.0,24.11,11111222 
TABS,ioos:station:wmo:42050:1,2003-05-06T01:00:00Z,28.8425,-94.2433,-2.0,24.13,11111222 
TABS,ioos:station:wmo:42050:1,2003-05-06T01:30:00Z,28.8425,-94.2433,-2.0,24.09,11111222 
TABS,ioos:station:wmo:42050:1,2003-05-06T02:00:00Z,28.8425,-94.2433,-2.0,24.09,11111222 
TABS,ioos:station:wmo:42050:1,2003-05-06T02:30:00Z,28.8425,-94.2433,-2.0,24.07,11111222 
TABS,ioos:station:wmo:42050:1,2003-05-06T03:00:00Z,28.8425,-94.2433,-2.0,24.05,11111222 
TABS,ioos:station:wmo:42050:1,2003-05-06T03:30:00Z,28.8425,-94.2433,-2.0,24.03,11111222 
TABS,ioos:station:wmo:42050:1,2003-05-06T04:00:00Z,28.8425,-94.2433,-2.0,24.0,11111222 
TABS,ioos:station:wmo:42050:1,2003-05-06T04:30:00Z,28.8425,-94.2433,-2.0,23.98,11111222 
TABS,ioos:station:wmo:42050:1,2003-05-06T05:00:00Z,28.8425,-94.2433,-2.0,23.95,11111222 
TABS,ioos:station:wmo:42050:1,2003-05-06T05:30:00Z,28.8425,-94.2433,-2.0,23.89,11111222 
TABS,ioos:station:wmo:42050:1,2003-05-06T06:00:00Z,28.8425,-94.2433,-2.0,23.88,11111222 
TABS,ioos:station:wmo:42050:1,2003-05-06T06:30:00Z,28.8425,-94.2433,-2.0,23.83,11111222 
TABS,ioos:station:wmo:42050:1,2003-05-06T07:00:00Z,28.8425,-94.2433,-2.0,23.74,11111222 
TABS,ioos:station:wmo:42050:1,2003-05-06T07:30:00Z,28.8425,-94.2433,-2.0,23.63,11111222 
TABS,ioos:station:wmo:42050:1,2003-05-06T08:00:00Z,28.8425,-94.2433,-2.0,23.47,11111222 
TABS,ioos:station:wmo:42050:1,2003-05-06T08:30:00Z,28.8425,-94.2433,-2.0,23.34,11111222 
TABS,ioos:station:wmo:42050:1,2003-05-06T09:00:00Z,28.8425,-94.2433,-2.0,23.41,11111222 
TABS,ioos:station:wmo:42050:1,2003-05-06T09:30:00Z,28.8425,-94.2433,-2.0,23.24,11111222 
TABS,ioos:station:wmo:42050:1,2003-05-06T10:00:00Z,28.8425,-94.2433,-2.0,23.18,11111222 
TABS,ioos:station:wmo:42050:1,2003-05-06T10:30:00Z,28.8425,-94.2433,-2.0,23.08,11111222 
TABS,ioos:station:wmo:42050:1,2003-05-06T11:00:00Z,28.8425,-94.2433,-2.0,23.03,11111222 
TABS,ioos:station:wmo:42050:1,2003-05-06T11:30:00Z,28.8425,-94.2433,-2.0,23.07,11111222 
TABS,ioos:station:wmo:42050:1,2003-05-06T12:00:00Z,28.8425,-94.2433,-2.0,23.14,11111222 
TABS,ioos:station:wmo:42050:1,2003-05-06T12:30:00Z,28.8425,-94.2433,-2.0,23.16,11111222 
TABS,ioos:station:wmo:42050:1,2003-05-06T13:00:00Z,28.8425,-94.2433,-2.0,23.17,11111222 
TABS,ioos:station:wmo:42050:1,2003-05-06T13:30:00Z,28.8425,-94.2433,-2.0,23.16,11111222 
TABS,ioos:station:wmo:42050:1,2003-05-06T14:00:00Z,28.8425,-94.2433,-2.0,23.18,11111222 
TABS,ioos:station:wmo:42050:1,2003-05-06T14:30:00Z,28.8425,-94.2433,-2.0,23.36,11111222 
TABS,ioos:station:wmo:42050:1,2003-05-06T15:00:00Z,28.8425,-94.2433,-2.0,23.65,11111222 
TABS,ioos:station:wmo:42050:1,2003-05-06T15:30:00Z,28.8425,-94.2433,-2.0,23.78,11111222 
TABS,ioos:station:wmo:42050:1,2003-05-06T16:00:00Z,28.8425,-94.2433,-2.0,23.84,11111222 
TABS,ioos:station:wmo:42050:1,2003-05-06T16:30:00Z,28.8425,-94.2433,-2.0,23.88,11111222 
TABS,ioos:station:wmo:42050:1,2003-05-06T17:00:00Z,28.8425,-94.2433,-2.0,23.91,11111222 
TABS,ioos:station:wmo:42050:1,2003-05-06T17:30:00Z,28.8425,-94.2433,-2.0,23.94,11111222 
TABS,ioos:station:wmo:42050:1,2003-05-06T18:00:00Z,28.8425,-94.2433,-2.0,23.96,11111222 
TABS,ioos:station:wmo:42050:1,2003-05-06T18:30:00Z,28.8425,-94.2433,-2.0,24.01,11111222 
TABS,ioos:station:wmo:42050:1,2003-05-06T19:00:00Z,28.8425,-94.2433,-2.0,24.02,11111222 
TABS,ioos:station:wmo:42050:1,2003-05-06T19:30:00Z,28.8425,-94.2433,-2.0,24.07,11111222 
TABS,ioos:station:wmo:42050:1,2003-05-06T20:00:00Z,28.8425,-94.2433,-2.0,24.09,11111222 
TABS,ioos:station:wmo:42050:1,2003-05-06T20:30:00Z,28.8425,-94.2433,-2.0,24.09,11111222 
TABS,ioos:station:wmo:42050:1,2003-05-06T21:00:00Z,28.8425,-94.2433,-2.0,24.12,11111222 
TABS,ioos:station:wmo:42050:1,2003-05-06T21:30:00Z,28.8425,-94.2433,-2.0,24.11,11111222 
TABS,ioos:station:wmo:42050:1,2003-05-06T22:00:00Z,28.8425,-94.2433,-2.0,24.12,11111222 
TABS,ioos:station:wmo:42050:1,2003-05-06T22:30:00Z,28.8425,-94.2433,-2.0,24.12,11111222 
TABS,ioos:station:wmo:42050:1,2003-05-06T23:00:00Z,28.8425,-94.2433,-2.0,24.14,11111222 
TABS,ioos:station:wmo:42050:1,2003-05-06T23:30:00Z,28.8425,-94.2433,-2.0,24.14,11111222 
TABS,ioos:station:wmo:42050:1,2003-05-07T00:00:00Z,28.8425,-94.2433,-2.0,24.11,11111222 
TABS,ioos:station:wmo:42050:1,2003-05-07T00:30:00Z,28.8425,-94.2433,-2.0,24.1,11111222 
TABS,ioos:station:wmo:42050:1,2003-05-07T01:00:00Z,28.8425,-94.2433,-2.0,24.1,11111222 
TABS,ioos:station:wmo:42050:1,2003-05-07T01:30:00Z,28.8425,-94.2433,-2.0,24.08,11111222 
TABS,ioos:station:wmo:42050:1,2003-05-07T02:00:00Z,28.8425,-94.2433,-2.0,24.08,11111222 
TABS,ioos:station:wmo:42050:1,2003-05-07T02:30:00Z,28.8425,-94.2433,-2.0,24.05,11111222 
TABS,ioos:station:wmo:42050:1,2003-05-07T03:00:00Z,28.8425,-94.2433,-2.0,24.04,11111222 
TABS,ioos:station:wmo:42050:1,2003-05-07T03:30:00Z,28.8425,-94.2433,-2.0,24.03,11111222 
TABS,ioos:station:wmo:42050:1,2003-05-07T04:00:00Z,28.8425,-94.2433,-2.0,23.96,11111222 
TABS,ioos:station:wmo:42050:1,2003-05-07T04:30:00Z,28.8425,-94.2433,-2.0,23.89,11111222 
TABS,ioos:station:wmo:42050:1,2003-05-07T05:00:00Z,28.8425,-94.2433,-2.0,23.78,11111222 
TABS,ioos:station:wmo:42050:1,2003-05-07T06:00:00Z,28.8425,-94.2433,-2.0,23.8,11111222 
TABS,ioos:station:wmo:42050:1,2003-05-07T06:30:00Z,28.8425,-94.2433,-2.0,23.5,11111222 
TABS,ioos:station:wmo:42050:1,2003-05-07T07:00:00Z,28.8425,-94.2433,-2.0,23.5,11111222 
TABS,ioos:station:wmo:42050:1,2003-05-07T07:30:00Z,28.8425,-94.2433,-2.0,23.5,11111222 
TABS,ioos:station:wmo:42050:1,2003-05-07T08:00:00Z,28.8425,-94.2433,-2.0,23.5,11111222 
TABS,ioos:station:wmo:42050:1,2003-05-07T09:30:00Z,28.8425,-94.2433,-2.0,23.5,11111222 
TABS,ioos:station:wmo:42050:1,2003-05-07T10:30:00Z,28.8425,-94.2433,-2.0,23.5,11111222 
TABS,ioos:station:wmo:42050:1,2003-05-07T11:00:00Z,28.8425,-94.2433,-2.0,23.5,11111222 
TABS,ioos:station:wmo:42050:1,2003-05-07T11:30:00Z,28.8425,-94.2433,-2.0,23.5,11111222 
TABS,ioos:station:wmo:42050:1,2003-05-07T12:00:00Z,28.8425,-94.2433,-2.0,23.5,11111222 
TABS,ioos:station:wmo:42050:1,2003-05-07T12:30:00Z,28.8425,-94.2433,-2.0,23.5,11111222 
TABS,ioos:station:wmo:42050:1,2003-05-07T13:00:00Z,28.8425,-94.2433,-2.0,23.8,11111222 
TABS,ioos:station:wmo:42050:1,2003-05-07T13:30:00Z,28.8425,-94.2433,-2.0,23.8,11111222 
TABS,ioos:station:wmo:42050:1,2003-05-07T14:00:00Z,28.8425,-94.2433,-2.0,23.8,11111222 
TABS,ioos:station:wmo:42050:1,2003-05-07T14:30:00Z,28.8425,-94.2433,-2.0,23.8,11111222 
TABS,ioos:station:wmo:42050:1,2003-05-07T15:30:00Z,28.8425,-94.2433,-2.0,23.8,11111222 
TABS,ioos:station:wmo:42050:1,2003-05-07T16:00:00Z,28.8425,-94.2433,-2.0,23.8,11111222 
TABS,ioos:station:wmo:42050:1,2003-05-07T16:30:00Z,28.8425,-94.2433,-2.0,23.3,11111222 
TABS,ioos:station:wmo:42050:1,2003-05-07T17:00:00Z,28.8425,-94.2433,-2.0,23.8,11111222 
TABS,ioos:station:wmo:42050:1,2003-05-07T17:30:00Z,28.8425,-94.2433,-2.0,23.8,11111222 
TABS,ioos:station:wmo:42050:1,2003-05-07T18:00:00Z,28.8425,-94.2433,-2.0,24.0,11111222 
TABS,ioos:station:wmo:42050:1,2003-05-07T18:30:00Z,28.8425,-94.2433,-2.0,23.3,11111222 
TABS,ioos:station:wmo:42050:1,2003-05-07T19:00:00Z,28.8425,-94.2433,-2.0,23.3,11111222 
TABS,ioos:station:wmo:42050:1,2003-05-07T19:30:00Z,28.8425,-94.2433,-2.0,23.5,11111222 
TABS,ioos:station:wmo:42050:1,2003-05-07T20:00:00Z,28.8425,-94.2433,-2.0,23.8,11111222 
TABS,ioos:station:wmo:42050:1,2003-05-07T20:30:00Z,28.8425,-94.2433,-2.0,23.8,11111222 
TABS,ioos:station:wmo:42050:1,2003-05-07T21:00:00Z,28.8425,-94.2433,-2.0,23.8,11111222 
TABS,ioos:station:wmo:42050:1,2003-05-07T21:30:00Z,28.8425,-94.2433,-2.0,23.5,11111222 
TABS,ioos:station:wmo:42050:1,2003-05-07T22:00:00Z,28.8425,-94.2433,-2.0,23.8,11111222 
TABS,ioos:station:wmo:42050:1,2003-05-07T22:30:00Z,28.8425,-94.2433,-2.0,23.8,11111222 
TABS,ioos:station:wmo:42050:1,2003-05-07T23:00:00Z,28.8425,-94.2433,-2.0,23.8,11111222 
TABS,ioos:station:wmo:42050:1,2003-05-07T23:30:00Z,28.8425,-94.2433,-2.0,23.8,11111222 
TABS,ioos:station:wmo:42050:1,2003-05-08T00:00:00Z,28.8425,-94.2433,-2.0,23.8,11111222 
TABS,ioos:station:wmo:42050:1,2003-05-08T00:30:00Z,28.8425,-94.2433,-2.0,23.8,11111222 
TABS,ioos:station:wmo:42050:1,2003-05-08T01:00:00Z,28.8425,-94.2433,-2.0,23.5,11111222 
TABS,ioos:station:wmo:42050:1,2003-05-08T01:30:00Z,28.8425,-94.2433,-2.0,23.5,11111222 
TABS,ioos:station:wmo:42050:1,2003-05-10T04:00:00Z,28.8425,-94.2433,-2.0,24.56,11111222 
TABS,ioos:station:wmo:42050:1,2003-05-10T04:30:00Z,28.8425,-94.2433,-2.0,24.52,11111222 
TABS,ioos:station:wmo:42050:1,2003-05-10T05:00:00Z,28.8425,-94.2433,-2.0,24.48,11111222 
TABS,ioos:station:wmo:42050:1,2003-05-10T05:30:00Z,28.8425,-94.2433,-2.0,24.47,11111222 
TABS,ioos:station:wmo:42050:1,2003-05-10T06:00:00Z,28.8425,-94.2433,-2.0,24.49,11111222 
TABS,ioos:station:wmo:42050:1,2003-05-10T06:30:00Z,28.8425,-94.2433,-2.0,24.58,11111222 
TABS,ioos:station:wmo:42050:1,2003-05-10T07:00:00Z,28.8425,-94.2433,-2.0,24.46,11111222 
TABS,ioos:station:wmo:42050:1,2003-05-10T07:30:00Z,28.8425,-94.2433,-2.0,24.3,11111222 
TABS,ioos:station:wmo:42050:1,2003-05-10T08:00:00Z,28.8425,-94.2433,-2.0,24.26,11111222 
TABS,ioos:station:wmo:42050:1,2003-05-10T08:30:00Z,28.8425,-94.2433,-2.0,24.24,11111222 
TABS,ioos:station:wmo:42050:1,2003-05-10T09:00:00Z,28.8425,-94.2433,-2.0,24.31,11111222 
TABS,ioos:station:wmo:42050:1,2003-05-10T09:30:00Z,28.8425,-94.2433,-2.0,24.19,11111222 
TABS,ioos:station:wmo:42050:1,2003-05-10T10:00:00Z,28.8425,-94.2433,-2.0,24.16,11111222 
TABS,ioos:station:wmo:42050:1,2003-05-10T10:30:00Z,28.8425,-94.2433,-2.0,24.05,11111222 
TABS,ioos:station:wmo:42050:1,2003-05-10T11:00:00Z,28.8425,-94.2433,-2.0,24.02,11111222 
TABS,ioos:station:wmo:42050:1,2003-05-10T11:30:00Z,28.8425,-94.2433,-2.0,23.98,11111222 
TABS,ioos:station:wmo:42050:1,2003-05-10T12:00:00Z,28.8425,-94.2433,-2.0,23.94,11111222 
TABS,ioos:station:wmo:42050:1,2003-05-10T12:30:00Z,28.8425,-94.2433,-2.0,23.97,11111222 
TABS,ioos:station:wmo:42050:1,2003-05-10T13:00:00Z,28.8425,-94.2433,-2.0,24.01,11111222 
TABS,ioos:station:wmo:42050:1,2003-05-10T13:30:00Z,28.8425,-94.2433,-2.0,24.08,11111222 
TABS,ioos:station:wmo:42050:1,2003-05-10T14:00:00Z,28.8425,-94.2433,-2.0,24.17,11111222 
TABS,ioos:station:wmo:42050:1,2003-05-10T14:30:00Z,28.8425,-94.2433,-2.0,24.23,11111222 
TABS,ioos:station:wmo:42050:1,2003-05-10T15:00:00Z,28.8425,-94.2433,-2.0,24.27,11111222 
TABS,ioos:station:wmo:42050:1,2003-05-10T15:30:00Z,28.8425,-94.2433,-2.0,24.33,11111222 
TABS,ioos:station:wmo:42050:1,2003-05-10T16:00:00Z,28.8425,-94.2433,-2.0,24.42,11111222 
TABS,ioos:station:wmo:42050:1,2003-05-10T16:30:00Z,28.8425,-94.2433,-2.0,24.48,11111222 
TABS,ioos:station:wmo:42050:1,2003-05-10T17:00:00Z,28.8425,-94.2433,-2.0,24.55,11111222 
TABS,ioos:station:wmo:42050:1,2003-05-10T17:30:00Z,28.8425,-94.2433,-2.0,24.63,11111222 
TABS,ioos:station:wmo:42050:1,2003-05-10T18:00:00Z,28.8425,-94.2433,-2.0,24.7,11111222 
TABS,ioos:station:wmo:42050:1,2003-05-10T18:30:00Z,28.8425,-94.2433,-2.0,24.8,11111222 
TABS,ioos:station:wmo:42050:1,2003-05-10T19:00:00Z,28.8425,-94.2433,-2.0,24.86,11111222 
TABS,ioos:station:wmo:42050:1,2003-05-10T19:30:00Z,28.8425,-94.2433,-2.0,24.91,11111222 
TABS,ioos:station:wmo:42050:1,2003-05-10T20:00:00Z,28.8425,-94.2433,-2.0,24.93,11111222 